Regional Weather Roundup
Issued by NWS Newport/Morehead, NC

Current Version | Previous Version | Graphics & Text | Print | Product List | Glossary On
Versions: 1 2 3 4 5 6 7 8 9 10 11 12 13 14 15 16 17 18 19 20 21 22 23 24 25 26 27 28 29 30 31 32 33 34 35 36 37 38 39 40 41 42 43 44 45 46 47 48 49 50
000 ASUS42 KMHX 141813 RWRMHX WEATHER ROUNDUP FOR EASTERN NORTH CAROLINA NATIONAL WEATHER SERVICE NEWPORT/MOREHEAD CITY NC 100 PM EST SUN FEB 14 2016 NOTE: "FAIR" INDICATES FEW OR NO CLOUDS BELOW 12,000 FEET WITH NO SIGNIFICANT WEATHER AND/OR OBSTRUCTIONS TO VISIBILITY NCZ015>017-031-032-045>047-102-103-141900- NORTH COAST CITY SKY/WX TMP DP RH WIND PRES REMARKS EDENTON SUNNY 29 1 30 N7 30.55F ELIZABETH CITY SUNNY 26 5 40 N8 30.55F KITTY HAWK PTCLDY 29 10 46 NW6 30.53F MANTEO PTSUNNY 25 12 59 NE15G21 30.55F WCI 12 $$ NCZ045>047-081-094-103-104-141900- CENTRAL COAST CITY SKY/WX TMP DP RH WIND PRES REMARKS FRISCO MOSUNNY 29 13 51 N13G21 30.52F WCI 19 SWANQUARTER N/A 27 N/A N/A NE8G16 30.50F $$ NCZ095-097-098-100-101-141900- SOUTHERN COAST CITY SKY/WX TMP DP RH WIND PRES REMARKS BEAUFORT SUNNY 29 5 36 NE13G20 30.52F WCI 19 CEDAR ISLAND N/A 27 N/A N/A N14 30.56F WCI 15 JACKSONVILLE SUNNY 30 0 27 E5 30.51F PINEY ISLAND CLEAR N/A N/A N/A N10G20 30.54F WILMINGTON SUNNY 34 2 25 N8 30.52F $$ NCZ011>013-027>030-043-044-078>080-089-090>093-098-141900- COASTAL PLAIN CITY SKY/WX TMP DP RH WIND PRES REMARKS AHOSKIE SUNNY 24 -2 31 CALM 30.55F CLINTON MOSUNNY 29 3 33 CALM 30.53F ELIZABETHTOWN CLOUDY 31 1 27 E7 30.51F GOLDSBORO SUNNY 28 -2 26 VRB6 30.52F GREENVILLE SUNNY 28 0 29 CALM 30.53F HAVELOCK SUNNY 29 3 33 NE10 30.53F WCI 20 KENANSVILLE SUNNY 28 0 30 NE3 30.54F KINSTON SUNNY 28 0 29 NE7 30.54F NEW BERN SUNNY 29 1 30 N9 30.54F RICHLANDS SUNNY 28 1 31 N6 30.53F ROCKY MOUNT SUNNY 28 0 29 VRB7 30.54F WASHINGTON SUNNY 28 1 31 N7 30.54F WHITEVILLE CLOUDY 33 4 29 N6 30.51F $$ AMZ130-135-150-152-154-156-158-170-250-252-270-ANZ085-086-088-633-658-670-141900- MARINE OBSERVATIONS STATION/POSITION TIME TEMP WIND PRES WAVE SWELL AIR SEA DIR/SP/G HT/PER HT/PER (UTC) (F) (DEG/KT/KT) (MB) (FT/S) (FT/S) CHESAPEAKE LIGHT 1800 20 340/ 14/ 17 1034.9 64 E VA BEACH 1750 24 50 350/ 17/ 23 1032.9 7/ 8 DUCK 1700 22 10/ 14/ 17 1033.7 2 E DUCK 1711 41 N/A 4/ 8 OREGON INLET 1700 24 35 340/ 14/ 20 1034.4 13E OREGON INLT 1800 44 N/A 7/ 7 2/11 HATTERAS CG 1700 24 39 360/ 17/ 22 1033.7 DIAMOND BUOY 1750 29 71 360/ 19/ 25 1032.8 5/11 3/11 CAPE LOOKOUT 1800 26 20/ 11/ 15 1033.1 BEAUFORT LAB 1700 25 40 30/ 12/ 16 1033.3 30 SE NEW RVR IN 1708 30 60 1033.4 30 SE NEW RVR IN 1725 60 N/A 5/ 5 27 SE WRIGHTSVLE 1708 33 59 50/ 14/ 23 1032.4 5 SE WRIGHTSVLE 1708 28 50 50/ 12/ 16 1034.2 225 S CAPE HAT 1750 48 68 20/ 10/ 16 N/A 9/10 8/10 41 SE CHARLESTON 1750 44 68 40/ 16/ 21 1029.7 5/ 7 $$

USA.gov is the U.S. government's official web portal to all federal, state and local government web resources and services.